Location: Chuathbaluk
(61.5726°N, 159.2454°W)
Time: 10:30:15
(UTC+00:00)

ZACube-1 - Visible Passes

Search period start: 17 January 2021 00:00
Search period end: 27 January 2021 00:00
Orbit: 584 x 665 km, 97.6° (Epoch: 16 January)

Date Brightness Start Highest point End Pass type
(mag) Time Alt. Az. Time Alt. Az. Time Alt. Az.
17 Jan ? 03:56:33 10° SW 04:00:05 23° W 04:03:42 10° NW visible
17 Jan ? 13:59:07 10° ENE 13:59:14 10° ENE 13:59:23 10° ENE visible
17 Jan ? 15:32:18 10° NNE 15:36:42 43° E 15:41:05 10° S visible
17 Jan ? 17:08:39 10° N 17:13:01 44° WNW 17:17:22 10° SW visible
18 Jan ? 04:16:08 10° SW 04:19:07 17° W 04:22:08 10° NW visible
18 Jan ? 14:16:00 10° NE 14:18:21 14° E 14:20:42 10° ESE visible
18 Jan ? 15:51:01 10° NNE 15:55:35 59° ESE 16:00:07 10° S visible
18 Jan ? 17:27:31 10° N 17:31:41 34° WNW 17:35:49 10° WSW visible
19 Jan ? 02:56:31 10° S 03:00:54 56° W 03:05:26 10° NNW visible
19 Jan ? 04:36:06 10° WSW 04:38:11 13° W 04:40:18 10° NW visible
19 Jan ? 14:34:14 10° NE 14:37:26 18° E 14:40:36 10° SE visible
19 Jan ? 16:09:47 10° NNE 16:14:25 79° ESE 16:19:00 10° SSW visible
19 Jan ? 17:46:26 10° N 17:50:18 27° NW 17:54:09 10° WSW visible
20 Jan ? 03:15:32 10° SSW 03:19:47 42° W 03:24:09 10° NNW visible
20 Jan ? 14:52:41 10° NE 14:56:26 24° E 15:00:09 10° SE visible
20 Jan ? 16:28:35 10° NNE 16:33:12 79° WNW 16:37:46 10° SSW visible
20 Jan ? 18:05:22 10° N 18:08:53 22° NW 18:12:23 10° W visible
21 Jan ? 03:34:42 10° SSW 03:38:43 31° W 03:42:49 10° NNW visible
21 Jan ? 15:11:16 10° NNE 15:15:24 32° E 15:19:30 10° SSE visible
21 Jan ? 16:47:24 10° NNE 16:51:57 59° WNW 16:56:26 10° SW visible
21 Jan ? 18:24:21 10° N 18:27:26 18° NW 18:30:30 10° W visible
22 Jan ? 03:54:02 10° SW 03:57:41 24° W 04:01:23 10° NW visible
22 Jan ? 15:29:56 10° NNE 15:34:20 42° E 15:38:40 10° SSE visible
22 Jan ? 17:06:16 10° N 17:10:39 45° WNW 17:15:00 10° SW visible
23 Jan ? 04:13:36 10° SW 04:16:42 18° W 04:19:51 10° NW visible
23 Jan ? 14:13:43 10° NE 14:15:56 13° E 14:18:10 10° ESE visible
23 Jan ? 15:48:39 10° NNE 15:53:12 57° E 15:57:41 10° S visible
23 Jan ? 17:25:08 10° N 17:29:18 35° WNW 17:33:26 10° WSW visible
24 Jan ? 04:33:31 10° WSW 04:35:46 13° W 04:38:03 10° NW visible
24 Jan ? 14:31:54 10° NE 14:35:01 18° E 14:38:06 10° SE visible
24 Jan ? 16:07:24 10° NNE 16:12:03 77° ESE 16:16:35 10° SSW visible
24 Jan ? 17:44:03 10° N 17:47:56 28° NW 17:51:47 10° WSW visible
25 Jan ? 03:13:04 10° S 03:17:23 43° W 03:21:48 10° NNW visible
25 Jan ? 14:50:20 10° NE 14:54:02 23° E 14:57:41 10° SE visible
25 Jan ? 16:26:12 10° NNE 16:30:50 81° WNW 16:35:21 10° SSW visible
25 Jan ? 18:02:59 10° N 18:06:31 22° NW 18:10:01 10° W visible
26 Jan ? 03:32:13 10° SSW 03:36:19 32° W 03:40:27 10° NNW visible
26 Jan ? 15:08:55 10° NNE 15:13:01 31° E 15:17:01 10° SSE visible
26 Jan ? 16:45:02 10° NNE 16:49:34 61° WNW 16:54:02 10° SW visible
26 Jan ? 18:21:58 10° N 18:25:04 18° NW 18:28:09 10° W visible
